Theta_e
319 328 334 333 340 343 343 340 338 343 346 346 347 344 345 347 353 371 354 354 355 352 339 336 335 335 339 345 348 346 347 341 334 334 335 331 331 334 342 342 342 342 341 340 340 342 345 342 337
318 327 330 333 340 342 342 337 340 348 347 343 345 346 350 353 341 358 356 357 355 352 346 336 335 334 337 343 347 347 347 340 334 335 336 332 333 336 341 343 345 348 347 344 343 343 342 343 341
325 328 331 336 337 339 342 338 339 344 342 344 342 350 353 358 357 359 357 359 356 351 351 337 335 334 335 341 345 347 346 340 334 337 337 335 334 337 339 344 346 347 347 346 346 344 343 342 340
325 328 330 335 336 338 338 334 334 341 339 339 345 355 355 355 357 357 357 358 356 353 354 336 335 334 334 337 342 345 344 341 337 340 341 339 337 337 338 341 345 345 343 343 341 341 340 337 334
325 328 332 335 335 337 336 333 334 338 339 339 343 358 358 355 356 356 356 357 354 356 353 337 336 335 334 333 334 339 342 343 341 345 346 344 343 340 337 337 338 339 340 339 338 337 337 336 332
327 330 333 336 335 336 334 333 334 336 340 340 338 353 353 353 355 355 353 354 353 360 352 339 337 335 334 333 332 333 337 342 345 346 347 345 344 342 339 336 338 339 343 343 342 341 339 337 334
331 332 334 334 338 337 334 332 332 333 336 334 337 347 343 352 351 352 352 351 352 356 353 351 345 337 335 334 332 332 333 336 340 343 343 342 341 340 337 335 337 340 340 340 340 338 336 337 338
332 332 334 333 338 337 332 331 331 331 329 331 333 337 340 348 349 348 349 351 352 355 355 352 352 349 343 336 333 331 331 334 336 337 337 337 335 334 331 330 332 333 334 335 334 336 338 339 338
331 333 335 335 339 337 332 331 330 328 329 328 328 331 333 336 341 342 345 347 349 350 356 354 354 353 350 349 337 334 332 333 335 335 334 334 335 335 339 333 341 341 339 335 338 339 338 338 337
332 335 336 336 337 337 333 329 329 329 329 328 327 327 328 334 335 337 339 341 348 348 351 355 357 356 354 352 350 341 341 338 336 339 337 338 342 343 344 344 343 342 340 335 333 330 334 338 341
329 335 336 336 335 332 334 330 329 329 329 329 328 327 326 326 332 334 335 335 337 348 350 356 356 357 355 356 354 351 350 347 346 346 347 341 344 346 345 344 344 344 347 343 349 348 347 349 350
328 329 333 333 333 333 327 330 332 328 328 328 326 326 325 325 326 327 327 329 331 338 343 353 354 351 353 359 359 355 353 351 350 348 349 349 349 349 350 350 349 350 349 350 350 349 349 349 349
329 327 326 327 329 328 326 324 330 329 326 326 325 325 324 325 326 325 326 326 327 332 331 336 345 351 353 356 359 357 355 354 354 352 351 353 351 348 346 343 345 344 344 343 338 339 341 342 341
327 326 325 325 323 323 324 324 323 324 326 323 324 324 324 325 326 325 325 325 325 327 329 333 336 346 351 354 357 356 355 354 353 353 352 350 348 349 349 346 348 345 346 350 341 338 339 340 340
325 324 324 324 323 323 323 323 322 323 323 323 323 324 325 325 325 325 324 324 324 325 329 332 336 349 354 356 359 360 354 354 353 352 352 348 350 348 350 349 342 338 337 333 332 332 332 332 331
324 324 324 324 325 323 322 321 323 324 323 323 323 324 325 326 326 325 325 325 325 325 328 328 331 349 356 359 360 359 357 354 353 353 351 351 350 351 346 338 335 334 329 327 328 328 331 330 327
325 325 324 323 325 323 322 322 324 324 324 324 326 325 325 326 328 326 325 326 326 327 328 331 333 353 355 358 359 356 354 354 353 349 344 340 349 342 337 331 330 327 330 328 329 329 326 329 332
325 324 324 324 324 323 323 323 323 325 325 324 325 325 325 325 331 332 330 329 330 330 331 331 335 354 351 357 356 354 351 353 350 348 345 340 336 335 329 330 330 329 327 328 328 326 328 331 331
323 323 324 324 324 324 324 324 324 324 324 324 323 325 325 327 332 331 331 329 329 330 332 331 333 352 354 357 356 351 346 349 339 338 337 334 331 331 331 329 329 328 329 328 328 327 329 330 330
322 322 322 323 323 324 323 324 323 324 324 323 322 326 326 327 332 333 332 332 335 339 341 340 343 350 353 351 351 346 345 341 337 336 333 331 331 331 329 328 329 329 327 328 328 332 328 327 327
321 322 323 324 323 323 323 323 325 325 324 324 324 325 327 330 333 334 334 335 337 339 342 345 347 350 349 343 340 337 337 335 335 334 332 331 329 329 329 328 326 326 325 326 324 322 324 331 329
322 324 324 323 323 322 323 322 323 324 324 326 326 327 326 329 330 332 333 333 334 335 337 339 339 338 338 337 340 338 337 335 334 333 333 328 327 327 325 323 323 323 323 323 325 324 321 323 326
323 322 322 322 321 322 323 323 322 327 326 327 327 327 328 328 329 330 331 330 331 332 333 333 333 332 331 330 331 332 332 330 328 327 326 325 323 323 322 321 322 322 322 321 321 325 325 325 325
321 320 322 323 323 325 325 324 323 324 324 326 328 327 326 326 328 329 329 328 328 329 330 330 330 329 328 328 327 327 328 328 328 329 328 324 324 322 321 321 321 321 320 322 321 321 322 323 324
323 323 322 324 325 326 325 322 322 324 323 322 321 325 327 326 326 326 326 327 326 325 326 326 327 327 328 327 326 326 326 327 327 326 325 323 323 322 321 320 319 319 320 320 320 320 321 322 323
319 320 320 323 324 320 318 318 322 325 323 323 323 325 326 327 326 325 324 323 322 322 322 321 322 324 324 326 325 325 325 325 324 324 325 324 323 321 320 319 320 319 319 319 319 320 320 321 322
321 321 322 322 319 319 320 322 324 323 324 324 323 324 323 322 322 322 322 322 320 320 319 318 321 320 321 323 324 324 324 324 324 323 323 322 322 321 320 319 319 319 319 319 319 320 320 320 322
318 321 321 321 323 323 321 321 320 323 323 324 323 322 321 320 319 320 320 318 317 317 316 317 315 315 319 317 320 322 323 323 322 322 321 321 321 320 319 319 318 318 318 318 318 319 320 320 319
322 322 321 322 324 325 324 322 321 324 322 321 319 319 318 318 318 318 317 316 315 315 315 316 316 316 317 315 316 317 318 321 320 320 320 320 320 319 319 318 317 317 317 317 318 318 320 319 320
320 320 319 329 325 325 327 325 321 321 319 320 318 317 317 317 316 316 315 315 314 313 314 314 315 314 316 318 316 317 317 318 317 317 317 317 317 318 317 317 316 316 316 317 318 317 318 318 322
Wind_Speed
22 19 15 16 5 8 10 3 5 11 11 14 25 20 20 20 8 1 12 20 22 21 20 16 14 13 12 12 12 11 9 8 9 9 10 11 12 13 13 12 12 11 9 8 7 6 4 3 4
21 19 15 7 9 7 4 6 10 14 12 10 26 32 22 9 6 8 11 20 21 19 20 18 15 13 12 12 12 11 10 9 10 9 10 10 11 11 11 11 10 9 7 6 5 4 2 1 1
21 15 8 7 13 6 8 15 9 11 3 3 14 19 17 19 13 9 20 19 20 20 17 18 16 14 12 12 12 10 9 9 9 8 9 10 10 10 10 10 9 7 6 4 3 2 1 1 2
11 6 7 10 19 7 9 3 7 4 4 4 20 16 17 21 22 21 20 20 19 18 16 19 16 14 12 11 11 10 10 9 10 9 8 8 8 9 9 10 9 6 3 2 1 2 2 3 4
17 8 11 18 20 13 9 7 8 8 6 8 10 20 17 18 17 16 17 18 19 21 16 19 16 14 13 12 11 10 9 10 11 10 8 8 8 8 8 9 9 7 5 2 1 2 3 4 4
5 7 14 16 14 5 6 4 5 8 6 11 3 20 16 19 16 17 18 18 19 19 17 18 16 13 12 11 11 11 10 10 10 9 9 7 7 7 7 8 8 7 4 3 3 4 4 5 6
11 11 17 20 16 11 4 5 6 9 14 17 11 18 14 17 13 13 16 17 17 21 17 13 13 13 11 10 10 10 11 11 11 10 9 8 7 7 7 7 7 7 5 5 6 7 7 8 9
10 8 19 18 7 7 12 3 6 7 13 5 7 11 11 8 11 12 14 18 18 22 21 18 12 10 10 12 11 10 10 11 11 10 10 9 9 9 8 8 8 7 7 7 8 8 9 9 11
9 12 11 22 24 17 9 5 8 4 5 9 10 14 10 9 4 8 11 12 18 18 26 26 23 18 13 13 13 11 10 11 11 10 10 9 7 5 7 6 8 9 9 9 9 10 11 12 14
5 11 21 18 16 17 14 16 12 6 6 7 10 10 6 6 5 5 7 8 16 14 17 26 25 20 14 20 15 12 11 10 10 9 10 10 9 11 8 11 9 9 10 10 11 11 12 14 15
13 14 22 22 23 17 12 16 20 13 6 7 10 7 10 2 2 6 8 10 5 14 15 25 18 14 11 21 18 15 12 12 9 11 10 9 11 9 6 7 9 8 5 5 11 14 11 12 15
16 16 15 20 18 23 13 18 12 13 15 16 5 7 7 2 7 8 9 9 7 17 14 18 14 9 6 8 18 15 19 19 16 15 15 12 7 10 5 7 4 9 7 4 3 5 7 13 14
18 12 14 14 18 19 14 18 16 16 13 17 8 5 5 9 9 12 13 14 7 13 13 8 11 11 4 7 6 11 13 14 13 14 16 12 12 6 3 5 4 4 4 6 6 7 11 13 15
16 11 18 17 8 20 17 17 16 17 17 13 12 6 8 15 11 8 6 8 12 11 13 8 5 8 6 6 3 5 12 12 14 19 21 20 13 15 7 5 2 3 7 2 6 10 12 14 17
11 13 13 15 16 16 15 19 18 19 15 3 2 7 10 11 13 5 9 3 4 4 15 10 6 12 10 8 7 6 8 11 10 9 12 13 19 10 8 5 1 5 4 8 12 13 14 17 20
9 14 17 19 24 17 8 13 19 10 15 5 8 11 12 7 7 5 6 3 5 2 14 14 11 17 12 12 8 8 9 10 9 5 2 4 8 9 6 2 6 5 7 9 11 13 12 15 21
14 16 20 23 13 13 15 13 9 5 5 5 5 7 9 6 7 7 3 4 4 6 2 6 8 16 14 13 10 9 11 12 18 13 8 3 6 7 4 7 5 6 7 10 11 12 18 20 21
19 17 17 14 13 8 9 13 13 10 12 10 7 9 8 6 9 16 11 9 7 7 3 5 9 14 14 11 14 12 8 13 12 19 13 13 10 7 4 8 5 5 7 10 12 17 18 19 21
9 14 14 8 11 4 5 12 15 13 9 8 4 6 6 4 12 11 10 6 5 5 5 7 11 12 14 12 9 12 14 11 13 15 13 13 10 6 3 2 4 4 7 12 14 17 19 21 19
9 12 14 12 4 3 6 15 17 15 13 9 2 4 3 3 9 10 7 6 6 6 3 3 6 6 7 9 14 10 13 18 15 13 10 8 6 4 2 0 2 6 10 13 16 15 20 21 22
10 13 12 10 13 10 16 19 21 15 12 6 2 4 4 7 10 8 9 8 8 8 7 6 6 4 1 5 4 10 15 17 18 14 12 10 6 3 1 2 5 6 9 12 17 20 20 18 19
10 11 10 7 10 11 16 12 15 11 10 8 8 4 6 9 8 8 9 10 11 11 11 11 10 9 7 8 1 2 2 7 7 12 16 8 4 2 1 2 4 7 11 14 14 17 23 24 21
9 10 10 13 13 14 16 10 12 16 13 15 11 8 8 6 6 9 13 13 9 12 11 10 11 13 13 13 14 10 11 6 5 5 4 1 5 3 2 5 5 8 13 16 19 18 19 20 23
8 11 14 15 13 12 17 11 4 7 10 12 13 10 7 4 8 11 14 5 5 9 12 9 7 7 8 10 11 12 14 12 11 9 5 4 5 4 6 4 7 13 15 15 19 21 20 22 24
6 9 8 6 8 9 10 2 6 13 11 7 6 7 11 6 4 3 3 11 5 3 7 3 5 3 4 7 8 9 9 9 8 8 7 8 8 8 10 12 14 16 15 19 21 21 22 23 23
8 5 5 7 8 12 15 7 2 17 14 12 9 15 16 13 8 11 14 16 20 22 24 24 17 9 6 6 6 7 9 11 14 10 6 6 9 11 12 13 12 17 20 22 23 23 23 24 24
7 4 10 8 12 12 10 9 15 13 16 13 10 11 9 7 8 9 11 12 16 17 17 21 22 23 23 9 9 11 10 11 12 16 13 12 12 13 14 18 18 20 22 22 24 23 25 26 25
7 9 6 4 7 11 9 14 7 11 4 4 5 3 5 5 9 11 8 7 6 10 15 14 23 25 21 24 19 17 11 14 12 11 12 14 16 16 16 18 21 22 22 22 24 23 23 24 28
2 6 9 8 7 8 11 8 4 16 12 10 12 14 12 13 11 10 14 19 21 23 24 17 16 19 17 25 24 26 23 17 13 11 11 14 15 16 17 18 20 23 23 24 23 24 23 23 27
5 10 9 5 8 9 10 12 17 10 16 17 16 14 16 14 15 15 20 22 22 22 25 25 26 21 22 12 10 9 9 14 13 15 14 18 17 15 17 21 21 21 23 24 21 25 21 25 21
Wind_Direction
313 304 258 265 255 233 292 355 4 87 86 67 105 127 138 133 224 331 87 106 115 129 138 138 132 125 122 132 141 147 144 141 143 131 132 136 138 140 138 127 126 123 125 129 132 133 127 78 59
312 308 278 268 254 308 14 331 75 88 77 94 105 124 126 167 258 104 96 114 122 133 136 143 139 130 124 133 144 149 153 151 153 143 141 145 147 150 149 141 136 125 123 128 130 137 151 140 32
299 274 290 237 251 217 217 309 21 77 66 48 94 53 68 105 112 112 127 124 124 132 145 146 143 134 129 132 144 150 153 154 157 153 152 154 156 160 162 157 154 143 130 125 130 144 183 248 279
298 287 237 260 262 63 187 57 344 117 122 339 113 93 69 77 105 123 134 124 126 137 144 149 147 140 136 135 144 154 160 162 164 166 163 161 165 167 172 174 175 169 159 153 184 222 249 270 278
296 260 270 267 262 163 285 87 296 236 143 104 92 103 95 97 102 112 123 129 139 135 147 153 152 149 147 146 149 157 164 170 173 174 173 169 173 178 183 185 188 189 189 202 236 257 267 274 282
296 282 265 261 278 331 212 109 293 295 115 102 240 117 108 125 131 138 135 138 138 129 140 155 157 155 154 152 154 159 164 171 177 178 178 179 182 186 190 193 191 194 207 239 271 286 289 291 288
277 292 290 301 312 320 98 69 336 6 41 33 3 102 130 132 124 113 119 127 133 128 135 147 157 162 161 159 160 164 168 172 175 179 187 189 190 191 194 196 197 210 231 256 274 280 280 282 285
285 293 292 287 299 284 19 356 80 334 47 38 17 35 117 95 129 142 140 143 141 147 147 152 161 165 169 172 170 171 174 177 182 185 189 189 188 191 194 199 208 227 247 258 266 269 274 279 281
303 284 276 274 34 304 353 271 105 58 313 46 40 63 93 137 188 177 153 162 155 160 155 157 161 167 182 174 178 177 180 183 185 186 188 186 179 196 213 214 218 247 260 266 270 275 280 285 284
225 269 265 304 320 277 334 340 345 3 305 172 166 140 144 172 219 242 188 200 168 165 168 158 155 163 181 178 176 173 183 189 187 192 199 178 184 209 204 219 232 256 259 270 275 281 283 282 287
228 228 274 269 296 305 314 317 318 316 299 336 3 132 142 29 344 287 265 294 37 164 134 139 143 160 174 167 160 161 189 186 194 199 212 190 206 184 205 236 225 244 266 267 297 284 285 291 278
201 235 228 270 282 291 303 292 313 305 307 320 56 33 3 343 297 289 267 282 260 95 105 119 139 144 201 140 167 169 185 186 185 194 199 207 194 190 190 101 101 168 156 227 296 316 280 299 308
217 213 255 240 268 286 288 288 275 295 293 302 322 323 307 288 287 283 296 300 339 102 100 96 112 134 188 273 54 150 156 194 182 195 186 190 184 175 176 243 308 313 297 276 314 338 332 322 315
259 212 229 243 235 268 273 271 277 268 279 261 285 297 290 278 259 289 270 283 302 107 125 139 150 164 185 220 218 170 186 190 208 196 203 198 183 158 146 128 198 271 246 247 342 312 300 298 300
278 277 270 254 236 229 256 271 266 268 263 325 339 312 291 275 278 255 300 212 315 104 141 129 143 147 180 187 212 192 204 217 234 253 178 211 165 154 152 185 212 89 33 356 329 332 330 326 324
274 252 256 253 232 216 182 257 267 318 211 147 242 248 252 252 295 245 187 48 348 260 149 167 207 171 169 170 190 198 199 191 212 190 259 153 109 136 104 131 86 27 4 335 338 343 345 335 322
239 253 251 244 240 169 189 244 329 136 172 232 268 265 264 236 210 250 236 150 294 309 273 194 221 168 162 170 187 192 185 190 194 203 210 253 27 95 82 53 43 16 359 347 353 333 334 323 314
248 248 232 255 151 159 266 278 265 216 188 205 227 266 270 284 55 46 15 11 349 329 294 271 265 156 155 169 187 199 176 212 215 130 140 128 119 110 125 52 52 24 344 344 328 331 320 309 307
288 302 305 7 119 171 266 272 278 283 275 259 218 254 272 15 69 40 24 21 14 354 337 271 258 154 161 156 210 180 184 204 107 105 117 112 118 123 95 33 32 347 337 330 329 318 311 306 308
306 277 277 272 293 44 281 275 273 259 259 261 355 333 309 88 83 60 45 44 45 46 25 246 261 155 174 199 219 277 197 141 140 126 125 132 134 134 140 243 10 318 322 328 326 327 325 314 309
263 266 280 350 345 316 261 263 252 260 212 100 101 248 71 86 90 87 71 71 74 66 56 45 24 82 149 64 85 81 125 110 120 143 167 164 160 164 148 1 354 340 331 323 313 315 311 310 311
279 18 349 310 295 288 328 299 285 187 148 152 159 158 158 98 105 108 105 83 79 75 70 64 60 37 36 14 71 114 133 156 171 177 153 142 160 188 269 341 323 325 318 320 316 308 305 307 299
300 2 307 288 278 280 275 261 271 140 179 164 145 161 121 148 141 138 109 96 98 87 77 62 45 34 28 20 36 13 6 92 146 115 107 109 279 234 298 327 321 319 312 306 308 309 306 304 299
317 287 276 260 250 257 256 234 102 91 78 114 146 156 145 140 109 95 92 119 108 149 125 104 74 44 27 17 9 11 13 9 19 17 27 302 312 358 337 315 314 306 314 307 304 305 301 298 295
235 313 315 304 218 247 87 273 299 112 115 90 53 81 142 108 49 341 353 155 132 317 101 95 123 32 2 347 345 346 347 340 326 311 302 315 319 318 328 322 314 312 310 309 307 305 301 299 295
309 344 311 313 328 321 333 309 14 91 83 64 55 63 60 59 50 49 42 27 23 19 10 2 352 312 285 269 275 300 314 315 318 323 336 319 309 306 304 312 307 309 314 313 310 306 303 301 298
2 335 358 316 290 268 292 326 82 95 76 62 58 32 31 37 19 14 15 7 0 353 353 343 346 343 345 296 299 252 249 268 276 296 312 304 295 300 301 310 314 312 309 308 305 301 301 300 302
265 347 318 284 288 292 302 331 343 52 80 118 11 326 284 308 323 351 1 330 330 328 322 332 315 310 332 335 331 300 260 248 238 259 275 282 286 295 303 310 311 306 304 303 298 297 299 302 306
266 301 319 314 325 294 297 280 298 9 8 9 347 344 9 17 10 358 337 341 344 339 334 314 299 297 281 283 285 298 310 317 279 264 281 291 289 292 295 298 304 303 302 300 299 300 300 306 303
314 296 302 308 306 308 309 289 281 323 351 341 333 6 7 2 347 348 347 340 331 325 325 337 341 338 339 315 315 329 309 287 290 300 305 296 298 294 299 297 294 301 304 301 304 303 301 311 307